User: anonymous   Login
Location: Fontevrault
(47.1823°N, 0.0493°E)
Time: 21:45:40
(UTC+00:00)
Language:

COSMOS 2251 DEB - Orbit

View from above orbital plane
View from above orbital plane
View from above satellite
View from above satellite

Ground track
Ground track

The orbit data is extracted from the following two-line orbital elements,

1 34613U 93036WJ  22022.55900257  .00001419  00000-0  70476-3 0  9991
2 34613  73.9696 305.6271 0127335  87.6143  87.2969 14.13865391663572
Epoch (UTC): 22 January 2022 13:24:57
Eccentricity: 0.0127335
inclination: 73.9696°
perigee height: 754 km
apogee height: 938 km
right ascension of ascending node: 305.6271°
argument of perigee: 87.6143°
revolutions per day: 14.13865391
mean anomaly at epoch: 87.2969°
orbit number at epoch: 66357

The dashed part of the orbit path shows where the satellite is in the earth's shadow,  

DLR